This demonstration page uses our WeatherBlox Daily Observations layout. Learn more.

Left ArrowRight Arrow

Hourly Observations for September 12, 2015

Temp ( °F °C ) Dew Point ( °F °C ) Humidity (%) Winds ( mph kmh ) Pressure ( in mb ) Visibility ( mi km ) Precip ( " mm )
12:30 am 00:30 Cloudy 61 16.1 59 15 93 93 NNW 8 13 29.91 1013 9 14.48406 0 0.0254
12:53 am 00:53 Cloudy with Light Rain 61 16.1 58 14.4 90 90 NNW 12 19 29.9 1013 6 9.65604 0.01 0.254
1:01 am 01:01 Cloudy with Light Rain 61 16.1 58 14.4 90 90 N 9 15 29.91 1013 7 11.26538 0 0.0254
1:53 am 01:53 Cloudy with Light Rain 60 15.6 57 13.9 90 90 N 7 11 29.9 1012 10 16.0934 0.01 0.254
2:20 am 02:20 Cloudy 60 15.6 57 13.9 90 90 N 5 7 29.91 1013 10 16.0934 0 0.0254
2:53 am 02:53 Cloudy 60 15.6 57 13.9 90 90 N 6 9 29.88 1012 10 16.0934 0 0.0254
3:06 am 03:06 Cloudy 60 15.6 57 13.9 90 90 NNW 6 9 29.88 1012 10 16.0934 0 0
3:53 am 03:53 Cloudy with Light Rain 60 15.6 57 13.9 90 90 NNW 6 9 29.89 1012 6 9.65604 0 0.0254
4:05 am 04:05 Cloudy 60 15.6 57 13.9 90 90 NNW 5 7 29.91 1013 10 16.0934 0 0.0254
4:53 am 04:53 Cloudy 59 15 57 13.9 93 93 NW 3 6 29.9 1013 10 16.0934 0.01 0.254
5:03 am 05:03 Cloudy 59 15 57 13.9 93 93 N 5 7 29.91 1013 10 16.0934 0 0
5:50 am 05:50 Cloudy 59 15 57 14 94 94 NW 7 11 29.91 1013 10 16.0934 0 0
5:53 am 05:53 Cloudy 59 15 57 13.9 93 93 NNW 7 11 29.9 1013 10 16.0934 0 0
6:20 am 06:20 Cloudy 59 15 56 13.3 90 90 NNW 5 7 29.91 1013 10 16.0934 0 0
6:53 am 06:53 Cloudy 59 15 56 13.3 90 90 NW 5 7 29.9 1013 10 16.0934 0 0
7:53 am 07:53 Cloudy 58 14.4 54 12.2 87 87 NW 9 15 29.92 1013 10 16.0934 0 0
8:51 am 08:51 Mostly Cloudy 57 14 54 12 88 88 NNW 9 15 29.94 1014 10 16.0934 0 0
8:53 am 08:53 Mostly Cloudy 57 13.9 54 12.2 90 90 NNW 8 13 29.93 1014 10 16.0934 0 0
9:34 am 09:34 Cloudy 59 15 54 12.2 83 83 NNW 9 15 29.94 1014 10 16.0934 0 0
9:53 am 09:53 Cloudy 59 15 54 12.2 83 83 NNW 7 11 29.94 1014 10 16.0934 0 0
10:53 am 10:53 Cloudy 62 16.7 55 12.8 78 78 N 6 9 29.96 1014 10 16.0934 0 0
11:03 am 11:03 Cloudy 62 16.7 54 12.2 75 75 NNW 9 15 29.97 1015 10 16.0934 0 0
11:45 am 11:45 Cloudy 62 16.7 55 12.8 78 78 NW 7 11 29.97 1015 10 16.0934 0 0
11:53 am 11:53 Cloudy 62 16.7 54 12.2 75 75 NW 8 13 29.96 1014 10 16.0934 0 0
12:16 pm 12:16 Cloudy 63 17.2 54 12.2 73 73 NNW 7 11 29.94 1014 10 16.0934 0 0
12:53 pm 12:53 Cloudy 64 17.8 54 12.2 70 70 N 9 15 29.94 1014 10 16.0934 0 0
1:53 pm 13:53 Cloudy 64 17.8 52 11.1 65 65 NNW 5 7 29.93 1014 10 16.0934 0 0
2:53 pm 14:53 Cloudy with Light Rain 62 16.7 52 11.1 70 70 NW 8 13 29.92 1013 10 16.0934 0 0.0254
3:53 pm 15:53 Cloudy with Light Rain 64 17.8 54 12.2 70 70 NNW 9 15 29.91 1013 10 16.0934 0 0.0254
4:53 pm 16:53 Cloudy 59 15 52 11.1 78 78 NNW 7 11 29.92 1013 10 16.0934 0.01 0.254
5:53 pm 17:53 Mostly Cloudy 61 16.1 50 10 67 67 NW 6 9 29.91 1013 10 16.0934 0 0
6:53 pm 18:53 Cloudy 63 17.2 49 9.4 60 60 WNW 8 13 29.91 1013 10 16.0934 0 0
7:53 pm 19:53 Mostly Cloudy 60 15.6 49 9.4 67 67 NW 8 13 29.92 1013 10 16.0934 0 0
8:53 pm 20:53 Cloudy 58 14.4 51 10.6 78 78 NW 5 7 29.93 1014 10 16.0934 0 0
9:53 pm 21:53 Clear 56 13.3 49 9.4 77 77 NW 7 11 29.96 1014 10 16.0934 0 0
10:53 pm 22:53 Clear 55 12.8 48 8.9 77 77 NNW 6 9 29.96 1015 10 16.0934 0 0
11:53 pm 23:53 Mostly Clear 53 11.7 48 8.9 83 83 NW 7 11 29.98 1015 10 16.0934 0 0

Powered by AerisWeather